Emporia, VA

9:10 AM EST on December 11, 2019 (GMT -0500)
Emporia-Greensville Regional

Weather History for KEMV - October, 2019

Change the Weather History Date:

Tuesday, October 22, 2019

  Actual Average Record
Temperature  
Mean Temperature 64 °F -  
Max Temperature 72 °F 68 °F 88 °F (1993)
Min Temperature 56 °F 42 °F 28 °F (1987)
Degree Days  
Heating Degree Days 1    
Growing Degree Days 14 (Base 50)    
Moisture  
Dew Point 61 °F    
Average Humidity 94    
Maximum Humidity 100    
Minimum Humidity 75    
Precipitation  
Precipitation 0.00 in - - ()
Sea Level Pressure  
Sea Level Pressure 29.94 in    
Wind  
Wind Speed 5 mph (SE)    
Max Wind Speed 12 mph    
Max Gust Speed -    
Visibility 4 miles    
Events      
Averages and records for this station are not official NWS values.
T = Trace of Precipitation, MM = Missing Value Source: NWS Daily Summary

Daily Weather History Graph

Daily Weather History Graph

Search for Another Location

Airport or City:

Astronomy

Oct. 22, 2019 Rise Set
Actual Time 7:23 AM EDT 6:24 PM EDT
Civil Twilight 6:57 AM EDT 6:50 PM EDT
Nautical Twilight 6:27 AM EDT 7:21 PM EDT
Astronomical Twilight 5:57 AM EDT 7:51 PM EDT
Moon 12:44 AM EDT (10/22) 3:20 PM EDT (10/22)
Length of Visible Light 11h 53m
Length of Day
11h 01m
Last Quarter, 37% of the Moon is Illuminated
Oct 22
Last Quarter
Oct 27
New
Nov 4
First Quarter
Nov 12
Full
Nov 19
Last Quarter

Hourly Weather History & Observations

Time (EDT) Temp. Dew Point Humidity Pressure Visibility Wind Dir Wind Speed Gust Speed Precip Events Conditions
12:15 AM 56.7 °F 55.9 °F 97% 30.10 in - East 5.8 mph - N/A   Overcast
12:35 AM 56.7 °F 55.9 °F 97% 30.10 in - ESE 3.5 mph - N/A   Overcast
12:55 AM 56.7 °F 56.1 °F 98% 30.10 in - ESE 5.8 mph - N/A   Overcast
1:15 AM 56.7 °F 56.3 °F 99% 30.10 in - SE 4.6 mph - N/A   Overcast
1:35 AM 56.7 °F 56.3 °F 99% 30.10 in - ESE 4.6 mph - N/A   Overcast
1:55 AM 56.8 °F 56.3 °F 98% 30.10 in - Calm Calm - N/A   Overcast
2:15 AM 56.8 °F 56.3 °F 98% 30.10 in - Calm Calm - N/A   Overcast
2:35 AM 57.0 °F 56.5 °F 98% 30.09 in - ESE 3.5 mph - N/A   Overcast
2:55 AM 57.2 °F 56.5 °F 97% 30.08 in - Calm Calm - N/A   Overcast
3:15 AM 57.2 °F 56.7 °F 98% 30.07 in - ESE 3.5 mph - N/A   Overcast
3:35 AM 56.8 °F 56.7 °F 99% 30.06 in 3.0 mi East 4.6 mph - N/A   Overcast
3:55 AM 57.0 °F 57.0 °F 100% 30.06 in 4.0 mi East 4.6 mph - N/A   Overcast
4:15 AM 56.8 °F 56.8 °F 100% 30.04 in 4.0 mi East 5.8 mph - N/A   Overcast
4:35 AM 57.2 °F 57.2 °F 100% 30.04 in 5.0 mi East 5.8 mph - N/A   Overcast
4:55 AM 57.2 °F 57.0 °F 99% 30.04 in 5.0 mi ESE 6.9 mph - N/A   Overcast
5:35 AM 57.4 °F 57.2 °F 99% 30.04 in - ESE 3.5 mph - N/A   Overcast
6:15 AM 57.4 °F 57.4 °F 100% 30.02 in - ESE 5.8 mph - N/A   Overcast
6:35 AM 57.4 °F 57.2 °F 99% 30.01 in - East 5.8 mph - N/A   Overcast
6:55 AM 57.6 °F 57.2 °F 99% 30.02 in - ESE 4.6 mph - N/A   Overcast
7:15 AM 57.7 °F 57.2 °F 98% 30.00 in - East 4.6 mph - N/A   Overcast
7:35 AM 57.9 °F 57.2 °F 97% 30.01 in - SE 4.6 mph - N/A   Overcast
7:55 AM 58.1 °F 57.2 °F 97% 30.01 in - SE 4.6 mph - N/A   Overcast
8:15 AM 58.1 °F 57.2 °F 97% 30.01 in - SE 5.8 mph - N/A   Overcast
9:15 AM 59.0 °F 57.7 °F 96% 30.02 in - ESE 3.5 mph - N/A   Overcast
9:35 AM 59.2 °F 57.7 °F 95% 30.01 in - ESE 4.6 mph - N/A   Overcast
9:55 AM 59.2 °F 57.7 °F 95% 30.01 in - ESE 8.1 mph - N/A   Overcast
10:15 AM 59.9 °F 58.3 °F 94% 29.99 in - East 8.1 mph - N/A   Overcast
10:35 AM 60.1 °F 58.1 °F 93% 29.99 in - ESE 10.4 mph - N/A   Overcast
10:55 AM 60.4 °F 58.1 °F 92% 29.97 in - ESE 8.1 mph - N/A   Overcast
11:15 AM 61.0 °F 58.5 °F 91% 29.97 in - ESE 5.8 mph - N/A   Overcast
11:35 AM 61.7 °F 58.6 °F 90% 29.96 in - East 8.1 mph - N/A   Unknown
11:55 AM 64.0 °F 59.5 °F 85% 29.94 in - ESE 8.1 mph - N/A   Overcast
12:15 PM 66.2 °F 60.6 °F 82% 29.93 in - SE 9.2 mph - N/A   Overcast
12:35 PM 66.2 °F 60.4 °F 82% 29.92 in - East 6.9 mph - N/A   Overcast
12:55 PM 68.0 °F 61.2 °F 79% 29.90 in - East 5.8 mph - N/A   Overcast
1:15 PM 69.8 °F 62.2 °F 77% 29.89 in - ESE 9.2 mph - N/A   Overcast
1:55 PM 72.5 °F 64.0 °F 75% 29.86 in - ESE 11.5 mph - N/A   Overcast
2:15 PM 70.7 °F 64.2 °F 80% 29.84 in - ESE 10.4 mph - N/A   Overcast
2:35 PM 71.8 °F 64.8 °F 78% 29.83 in - ESE 10.4 mph - N/A   Overcast
2:55 PM 70.9 °F 64.8 °F 81% 29.82 in - SE 8.1 mph - N/A   Overcast
3:15 PM 69.6 °F 65.3 °F 86% 29.82 in - SE 10.4 mph - N/A   Overcast
3:35 PM 68.9 °F 65.7 °F 89% 29.82 in - SE 6.9 mph - N/A   Overcast
3:55 PM 68.4 °F 66.4 °F 93% 29.82 in - ESE 6.9 mph - N/A   Overcast
4:15 PM 68.7 °F 66.2 °F 92% 29.82 in - ESE 8.1 mph - N/A   Overcast
4:35 PM 69.3 °F 66.2 °F 90% 29.81 in - ESE 5.8 mph - N/A   Unknown
4:55 PM 69.3 °F 66.2 °F 90% 29.80 in - SE 9.2 mph - N/A   Overcast
5:15 PM 69.6 °F 66.4 °F 89% 29.81 in - SE 5.8 mph - N/A   Overcast
5:35 PM 69.8 °F 66.6 °F 89% 29.81 in - SE 5.8 mph - N/A   Overcast
5:55 PM 69.8 °F 66.6 °F 89% 29.79 in - SE 5.8 mph - N/A   Unknown
6:15 PM 69.4 °F 66.6 °F 91% 29.80 in - ESE 9.2 mph - N/A   Unknown
6:35 PM 68.9 °F 67.1 °F 94% 29.81 in - SSE 3.5 mph - N/A   Unknown
6:55 PM 68.4 °F 67.3 °F 96% 29.82 in - SW 3.5 mph - N/A   Unknown
7:15 PM 68.5 °F 67.3 °F 96% 29.82 in - Calm Calm - N/A   Overcast
7:35 PM 68.0 °F 67.1 °F 97% 29.83 in - Calm Calm - N/A   Overcast
7:55 PM 68.0 °F 66.7 °F 96% 29.84 in - WSW 5.8 mph - N/A   Unknown
8:15 PM 67.1 °F 65.7 °F 95% 29.84 in - West 5.8 mph - N/A   Unknown
8:35 PM 66.4 °F 65.3 °F 96% 29.85 in - WSW 3.5 mph - N/A   Unknown
8:55 PM 65.5 °F 64.9 °F 98% 29.86 in - WSW 4.6 mph - N/A   Mostly Cloudy
9:15 PM 64.9 °F 64.0 °F 97% 29.86 in - Calm Calm - N/A   Mostly Cloudy
9:35 PM 63.7 °F 62.6 °F 96% 29.87 in - West 4.6 mph - N/A   Unknown
9:55 PM 62.6 °F 61.7 °F 97% 29.88 in - Calm Calm - N/A   Unknown
10:15 PM 62.1 °F 61.2 °F 97% 29.88 in - West 3.5 mph - N/A   Unknown
10:35 PM 61.5 °F 60.8 °F 97% 29.89 in - WNW 4.6 mph - N/A   Unknown
10:55 PM 61.7 °F 60.4 °F 96% 29.89 in - WNW 3.5 mph - N/A   Unknown
11:15 PM 60.6 °F 59.9 °F 97% 29.89 in - Calm Calm - N/A   Unknown
11:35 PM 59.2 °F 58.8 °F 99% 29.89 in - Calm Calm - N/A   Unknown
11:55 PM 57.6 °F 57.6 °F 100% 29.89 in - Calm Calm - N/A   Unknown